When you browse on this site, cookies collect data to enhance your experience and personalize the content and advertising you see.
Visit our Privacy Policy to learn more. By continuing to use the site, you agree to this use of cookies and data.
  • In Spain
  • List of Countries
  • For 7 days
  • Water Temperature
  • Satellite Maps
  • Weather Map
  • Weather Widgets
  • user-avatar
    Login

    Hourly Weather Aktau

    Today, 25 June, Tuesday

    Time Temperature Precipitation Wind Pressure Humidity
    00:00 +36°C° 0 mm 4 mps 756 mmHg 19%
    01:00 +35°C° 0 mm 4 mps 756 mmHg 18%
    02:00 +35°C° 0 mm 4 mps 756 mmHg 17%
    03:00 +35°C° 0 mm 4 mps 756 mmHg 16%
    04:00 +35°C° 0 mm 5 mps 756 mmHg 16%
    05:00 +36°C° 0 mm 5 mps 757 mmHg 15%
    06:00 +36°C° 0 mm 5 mps 757 mmHg 14%
    07:00 +37°C° 0 mm 5 mps 757 mmHg 14%
    08:00 +37°C° 0 mm 4 mps 757 mmHg 15%
    09:00 +37°C° 0 mm 5 mps 758 mmHg 15%
    10:00 +39°C° 0 mm 6 mps 758 mmHg 15%
    11:00 +40°C° 0 mm 6 mps 758 mmHg 14%
    12:00 +43°C° 0 mm 7 mps 758 mmHg 13%
    13:00 +42°C° 0 mm 6 mps 757 mmHg 11%
    14:00 +44°C° 0 mm 6 mps 757 mmHg 10%
    15:00 +43°C° 0 mm 5 mps 757 mmHg 9%
    16:00 +42°C° 0 mm 5 mps 757 mmHg 11%
    17:00 +40°C° 0 mm 5 mps 756 mmHg 12%
    18:00 +39°C° 0 mm 5 mps 756 mmHg 14%
    19:00 +36°C° 0 mm 4 mps 756 mmHg 24%
    20:00 +34°C° 0 mm 4 mps 756 mmHg 34%
    21:00 +30°C° 0 mm 4 mps 756 mmHg 44%
    22:00 +30°C° 0 mm 3 mps 756 mmHg 46%
    23:00 +29°C° 0 mm 2 mps 756 mmHg 48%

    Tomorrow, 26 June, Wednesday

    Time Temperature Precipitation Wind Pressure Humidity
    00:00 +28°C° 0 mm 1 mps 755 mmHg 51%
    01:00 +28°C° 0 mm 2 mps 755 mmHg 52%
    02:00 +28°C° 0 mm 3 mps 755 mmHg 53%
    03:00 +28°C° 0 mm 4 mps 755 mmHg 54%
    04:00 +28°C° 0 mm 4 mps 755 mmHg 53%
    05:00 +29°C° 0 mm 4 mps 755 mmHg 52%
    06:00 +30°C° 0 mm 4 mps 755 mmHg 52%
    07:00 +33°C° 0 mm 5 mps 756 mmHg 43%
    08:00 +35°C° 0 mm 6 mps 756 mmHg 35%
    09:00 +39°C° 0 mm 7 mps 756 mmHg 27%
    10:00 +39°C° 0 mm 7 mps 756 mmHg 26%
    11:00 +40°C° 0 mm 7 mps 756 mmHg 26%
    12:00 +40°C° 0 mm 7 mps 757 mmHg 25%
    13:00 +40°C° 0 mm 8 mps 757 mmHg 25%
    14:00 +39°C° 0 mm 8 mps 757 mmHg 26%
    15:00 +39°C° 0 mm 9 mps 757 mmHg 27%
    16:00 +37°C° 0 mm 9 mps 757 mmHg 30%
    17:00 +35°C° 0 mm 9 mps 757 mmHg 33%
    18:00 +34°C° 0 mm 8 mps 757 mmHg 35%
    19:00 +33°C° 0 mm 8 mps 757 mmHg 37%
    20:00 +32°C° 0 mm 8 mps 757 mmHg 38%
    21:00 +30°C° 0 mm 7 mps 757 mmHg 40%
    22:00 +30°C° 0 mm 7 mps 757 mmHg 38%
    23:00 +29°C° 0 mm 6 mps 757 mmHg 36%

    Day after tomorrow, 27 June, Thursday

    Time Temperature Precipitation Wind Pressure Humidity
    00:00 +28°C° 0 mm 6 mps 757 mmHg 34%
    01:00 +28°C° 0 mm 6 mps 757 mmHg 35%
    02:00 +27°C° 0 mm 6 mps 757 mmHg 35%
    03:00 +27°C° 0 mm 7 mps 757 mmHg 36%
    04:00 +27°C° 0 mm 6 mps 757 mmHg 34%
    05:00 +28°C° 0 mm 6 mps 757 mmHg 33%
    06:00 +28°C° 0 mm 6 mps 757 mmHg 31%
    07:00 +29°C° 0 mm 6 mps 757 mmHg 27%
    08:00 +30°C° 0 mm 5 mps 757 mmHg 24%
    09:00 +32°C° 0 mm 5 mps 757 mmHg 20%
    10:00 +33°C° 0 mm 5 mps 757 mmHg 19%
    11:00 +34°C° 0 mm 5 mps 757 mmHg 18%
    12:00 +34°C° 0 mm 6 mps 757 mmHg 17%
    13:00 +34°C° 0 mm 7 mps 756 mmHg 18%
    14:00 +35°C° 0 mm 8 mps 756 mmHg 19%
    15:00 +35°C° 0 mm 9 mps 756 mmHg 20%
    16:00 +34°C° 0 mm 9 mps 756 mmHg 21%
    17:00 +33°C° 0 mm 8 mps 755 mmHg 23%
    18:00 +32°C° 0 mm 8 mps 755 mmHg 25%
    19:00 +31°C° 0 mm 8 mps 755 mmHg 28%
    20:00 +28°C° 0 mm 7 mps 755 mmHg 31%
    21:00 +27°C° 0 mm 6 mps 755 mmHg 34%
    22:00 +27°C° 0 mm 5 mps 754 mmHg 36%
    23:00 +26°C° 0 mm 4 mps 754 mmHg 38%

    28 June, Friday

    Time Temperature Precipitation Wind Pressure Humidity
    00:00 +25°C° 0 mm 4 mps 754 mmHg 40%
    01:00 +25°C° 0 mm 3 mps 754 mmHg 40%
    02:00 +24°C° 0 mm 3 mps 753 mmHg 41%
    03:00 +22°C° 0 mm 3 mps 753 mmHg 41%
    04:00 +24°C° 0 mm 3 mps 753 mmHg 40%
    05:00 +25°C° 0 mm 3 mps 753 mmHg 38%
    06:00 +25°C° 0 mm 3 mps 753 mmHg 36%
    07:00 +27°C° 0 mm 2 mps 753 mmHg 33%
    08:00 +28°C° 0 mm 2 mps 753 mmHg 29%
    09:00 +30°C° 0 mm 1 mps 752 mmHg 25%
    10:00 +31°C° 0 mm 1 mps 752 mmHg 23%
    11:00 +32°C° 0 mm 2 mps 752 mmHg 20%
    12:00 +34°C° 0 mm 2 mps 751 mmHg 18%
    13:00 +34°C° 0 mm 3 mps 751 mmHg 18%
    14:00 +35°C° 0 mm 3 mps 751 mmHg 19%
    15:00 +35°C° 0 mm 4 mps 750 mmHg 19%
    16:00 +34°C° 0 mm 4 mps 750 mmHg 20%
    17:00 +33°C° 0 mm 4 mps 750 mmHg 20%
    18:00 +33°C° 0 mm 4 mps 749 mmHg 21%
    19:00 +31°C° 0 mm 3 mps 749 mmHg 22%
    20:00 +30°C° 0 mm 3 mps 749 mmHg 23%
    21:00 +29°C° 0 mm 3 mps 749 mmHg 24%
    22:00 +29°C° 0 mm 2 mps 749 mmHg 25%
    23:00 +29°C° 0 mm 2 mps 749 mmHg 25%

    29 June, Saturday

    Time Temperature Precipitation Wind Pressure Humidity
    00:00 +29°C° 0 mm 2 mps 749 mmHg 26%
    01:00 +28°C° 0 mm 1 mps 748 mmHg 27%
    02:00 +28°C° 0 mm 1 mps 748 mmHg 27%
    03:00 +28°C° 0 mm 1 mps 748 mmHg 28%
    04:00 +29°C° 0 mm 1 mps 748 mmHg 25%
    05:00 +30°C° 0 mm 1 mps 748 mmHg 22%
    06:00 +31°C° 0 mm 2 mps 748 mmHg 18%
    07:00 +34°C° 0 mm 2 mps 748 mmHg 16%
    08:00 +36°C° 0 mm 3 mps 748 mmHg 14%
    09:00 +38°C° 0 mm 3 mps 748 mmHg 11%
    10:00 +37°C° 0 mm 4 mps 748 mmHg 14%
    11:00 +37°C° 0 mm 5 mps 748 mmHg 17%
    12:00 +38°C° 0 mm 6 mps 748 mmHg 19%
    13:00 +36°C° 0 mm 7 mps 748 mmHg 23%
    14:00 +35°C° 0 mm 7 mps 748 mmHg 26%
    15:00 +35°C° 0 mm 8 mps 748 mmHg 29%
    16:00 +34°C° 0.1 mm 7 mps 748 mmHg 29%
    17:00 +34°C° 0.1 mm 6 mps 748 mmHg 30%
    18:00 +33°C° 0.1 mm 6 mps 747 mmHg 30%
    19:00 +32°C° 0.4 mm 5 mps 748 mmHg 33%
    20:00 +30°C° 0.4 mm 4 mps 748 mmHg 36%
    21:00 +29°C° 0.4 mm 4 mps 749 mmHg 39%
    22:00 +29°C° 0.1 mm 4 mps 749 mmHg 43%
    23:00 +28°C° 0.1 mm 5 mps 749 mmHg 46%

    30 June, Sunday

    Time Temperature Precipitation Wind Pressure Humidity
    00:00 +28°C° 0.1 mm 5 mps 749 mmHg 49%
    01:00 +27°C° 0 mm 6 mps 749 mmHg 53%
    02:00 +27°C° 0 mm 6 mps 749 mmHg 57%
    03:00 +27°C° 0 mm 7 mps 749 mmHg 60%
    04:00 +27°C° 0 mm 7 mps 750 mmHg 59%
    05:00 +28°C° 0 mm 7 mps 750 mmHg 57%
    06:00 +28°C° 0 mm 7 mps 750 mmHg 55%
    07:00 +29°C° 0 mm 8 mps 750 mmHg 51%
    08:00 +32°C° 0 mm 8 mps 750 mmHg 46%
    09:00 +33°C° 0 mm 8 mps 750 mmHg 42%
    10:00 +34°C° 0 mm 8 mps 750 mmHg 41%
    11:00 +34°C° 0 mm 9 mps 750 mmHg 40%
    12:00 +34°C° 0 mm 9 mps 750 mmHg 39%
    13:00 +35°C° 0 mm 9 mps 750 mmHg 38%
    14:00 +36°C° 0 mm 10 mps 750 mmHg 37%
    15:00 +36°C° 0 mm 10 mps 750 mmHg 36%
    16:00 +33°C° 0 mm 10 mps 750 mmHg 39%
    17:00 +32°C° 0 mm 11 mps 750 mmHg 41%
    18:00 +31°C° 0 mm 11 mps 750 mmHg 43%
    19:00 +29°C° 0 mm 11 mps 751 mmHg 44%
    20:00 +28°C° 0 mm 11 mps 752 mmHg 46%
    21:00 +27°C° 0 mm 11 mps 752 mmHg 47%
    22:00 +26°C° 0 mm 10 mps 752 mmHg 50%
    23:00 +26°C° 0 mm 10 mps 752 mmHg 52%
    Show more